Location: Marsån
(66.4167°N, 22.2833°E)
Time: 11:39:10
(UTC+00:00)

CSL-04 Debris - Pass Details

Date: 24 February 2024
Orbit: 824 x 843 km, 98.8° (Epoch: 16 April)

Event Time Altitude Azimuth Distance (km) Brightness Sun altitude
Rises 16:47:33 0° 138° (SE) 3,365 6.9 -9.0°
Reaches altitude 10° 16:49:55 10° 135° (SE) 2,433 6.2 -9.2°
Maximum altitude 16:55:12 60° 57° (ENE) 946 4.2 -9.8°
Drops below altitude 10° 17:00:31 10° 339° (NNW) 2,442 6.9 -10.3°
Sets 17:02:53 0° 336° (NNW) 3,379 7.7 -10.5°
